Location: *
(44.3683°N, 6.6958°E)
Time: 11:46:30
(UTC+00:00)

STARLINK-69 - Pass Details

Date: 14 October 2019
Orbit: 548 x 551 km, 53.0° (Epoch: 12 November)

Event Time Altitude Azimuth Distance (km) Brightness Sun altitude
Rises 17:41:11 0° 239° (WSW) 2,706 8.3 -9.7°
Reaches altitude 10° 17:43:25 10° 240° (WSW) 1,815 7.3 -10.1°
Maximum altitude 17:47:32 78° 327° (NNW) 565 3.7 -10.8°
Enters shadow 17:51:26 12° 54° (NE) 1,723 5.7 -11.5°
